logo tempoitalia

Diretta Meteo Izmir-Adnan Menderes, Turchialunedì 31 agosto ore 08:20

Mappa
Sereno 25 °C Sereno 24 Ore: T.min 22 T.max 31
Ponente Nord Km/h 27.8 Punto di rugiada: 14 °C Umidità: 50% Visibilità: 10 Km
Il sole sorge alle: 06:40 Il sole tramonta alle: 19:43
31 Agosto 2026 08:20 tempo osservato: Sereno Sereno 25 50 1013 vento: Nord N 27.8
31 Agosto 2026 07:50 tempo osservato: Sereno Sereno 24 53 1013 vento: Nord N 25.9
31 Agosto 2026 07:20 tempo osservato: Sereno Sereno 23 60 1013 vento: Nord N 22.2
31 Agosto 2026 06:50 tempo osservato: Sereno Sereno 23 60 1013 vento: Nord N 27.8
31 Agosto 2026 06:20 tempo osservato: Sereno Sereno 23 60 1013 vento: Nord N 22.2
31 Agosto 2026 05:50 tempo osservato: Sereno Sereno 22 64 1013 vento: Nord N 14.8
31 Agosto 2026 05:20 tempo osservato: Sereno Sereno 23 60 1013 vento: Nord N/NO 9.3
31 Agosto 2026 04:50 tempo osservato: Sereno Sereno 23 60 1013 vento: Nord N 11.1
31 Agosto 2026 04:20 tempo osservato: Sereno Sereno 24 57 1013 vento: Nord N/NO 18.5
31 Agosto 2026 03:50 tempo osservato: Sereno Sereno 24 53 1013 vento: Nord N 13
31 Agosto 2026 03:20 tempo osservato: Sereno Sereno 26 50 1013 vento: Nord N/NE 7.4
31 Agosto 2026 02:50 tempo osservato: Sereno Sereno 24 53 1013 vento: Nord N 7.4
31 Agosto 2026 02:20 tempo osservato: Sereno Sereno 25 53 1013 vento: Nord N 13
31 Agosto 2026 01:50 tempo osservato: Sereno Sereno 25 53 1013 vento: Nord N 22.2
31 Agosto 2026 01:20 tempo osservato: Sereno Sereno 26 50 1013 vento: Nord N 24
31 Agosto 2026 00:50 tempo osservato: Sereno Sereno 26 47 1013 vento: Nord N 24
31 Agosto 2026 00:20 tempo osservato: Sereno Sereno 26 47 1013 vento: Nord N/NO 13
30 Agosto 2026 23:50 tempo osservato: Sereno Sereno 27 44 1013 vento: Nord N/NO 25.9
30 Agosto 2026 23:20 tempo osservato: Sereno Sereno 27 44 1013 vento: Nord N/NO 25.9
30 Agosto 2026 22:50 tempo osservato: Sereno Sereno 27 44 1013 vento: Nord N 27.8
30 Agosto 2026 22:20 tempo osservato: Sereno Sereno 27 47 1013 vento: Nord N/NO 22.2
30 Agosto 2026 21:50 tempo osservato: Sereno Sereno 27 47 1013 vento: Nord N 18.5
30 Agosto 2026 21:20 tempo osservato: Sereno Sereno 27 47 1013 vento: Nord N/NE 16.7
30 Agosto 2026 20:50 tempo osservato: Sereno Sereno 28 45 1012 vento: Nord N/NO 22.2
30 Agosto 2026 20:20 tempo osservato: Sereno Sereno 28 45 1012 vento: Nord N/NO 27.8
30 Agosto 2026 19:50 tempo osservato: Sereno Sereno 29 42 1012 vento: Nord N/NO 29.6
30 Agosto 2026 19:20 tempo osservato: Sereno Sereno 29 45 1011 vento: Nord NO 29.6
30 Agosto 2026 18:50 tempo osservato: Poco Nuvoloso Poco Nuvoloso 29 45 1011 vento: Nord N/NO 35.2
30 Agosto 2026 18:20 tempo osservato: Poco Nuvoloso Poco Nuvoloso 30 42 1011 vento: Nord N/NO 33.3
30 Agosto 2026 17:50 tempo osservato: Poco Nuvoloso Poco Nuvoloso 31 40 1011 vento: Nord NO 33.3
30 Agosto 2026 17:20 tempo osservato: Poco Nuvoloso Poco Nuvoloso 31 40 1011 vento: Nord N/NO 35.2
30 Agosto 2026 16:50 tempo osservato: Poco Nuvoloso Poco Nuvoloso 31 40 1011 vento: Nord N/NO 38.8
30 Agosto 2026 16:20 tempo osservato: Poco Nuvoloso Poco Nuvoloso 31 40 1011 vento: Nord N/NO 37
30 Agosto 2026 15:50 tempo osservato: Poco Nuvoloso Poco Nuvoloso 30 45 1012 vento: Nord N/NO 37
30 Agosto 2026 15:20 tempo osservato: Poco Nuvoloso Poco Nuvoloso 31 43 1012 vento: Nord N/NO 35.2
30 Agosto 2026 14:50 tempo osservato: Poco Nuvoloso Poco Nuvoloso 30 42 1012 vento: Nord NO 29.6
30 Agosto 2026 14:20 tempo osservato: Poco Nuvoloso Poco Nuvoloso 31 43 1012 vento: Nord N/NO 29.6
30 Agosto 2026 13:50 tempo osservato: Poco Nuvoloso Poco Nuvoloso 30 45 1012 vento: Nord N/NO 31.5
30 Agosto 2026 13:20 tempo osservato: Sereno Sereno 29 45 1013 vento: Nord N/NO 33.3
30 Agosto 2026 12:50 tempo osservato: Sereno Sereno 29 45 1013 vento: Nord NO 29.6
30 Agosto 2026 12:20 tempo osservato: Sereno Sereno 29 42 1013 vento: Nord N/NO 29.6
30 Agosto 2026 11:50 tempo osservato: Sereno Sereno 28 48 1013 vento: Nord N/NO 35.2
30 Agosto 2026 11:20 tempo osservato: Sereno Sereno 27 50 1014 vento: Nord N/NO 33.3
30 Agosto 2026 10:50 tempo osservato: Sereno Sereno 27 47 1013 vento: Nord N/NO 35.2
30 Agosto 2026 10:20 tempo osservato: Sereno Sereno 27 47 1014 vento: Nord N/NO 25.9
30 Agosto 2026 09:50 tempo osservato: Sereno Sereno 26 47 1014 vento: Nord N 24
30 Agosto 2026 09:20 tempo osservato: Sereno Sereno 25 53 1014 vento: Nord N 20.3
30 Agosto 2026 08:50 tempo osservato: Sereno Sereno 25 53 1014 vento: Nord N/NE 16.7